Location: Unspecified
(0.0000°N, 0.0000°E)
Time: 18:46:01
(UTC+00:00)

Transit 2A - All Passes

Search period start: 21 February 2018 00:00
Search period end: 03 March 2018 00:00
Orbit: 594 x 965 km, 66.7° (Epoch: 20 February)

Date Brightness Start Highest point End Pass type
(mag) Time Alt. Az. Time Alt. Az. Time Alt. Az.
21 Feb - 08:24:44 10° NW 08:29:07 44° WSW 08:33:15 10° S daylight
21 Feb - 19:14:27 10° S 19:19:50 35° ESE 19:25:28 10° NE visible
21 Feb - 20:58:23 10° WSW 21:02:53 21° WNW 21:07:30 10° NNW visible
22 Feb - 07:50:31 10° NNW 07:55:08 85° WSW 07:59:29 10° SSE daylight
22 Feb - 18:41:20 10° SSE 18:45:50 22° ESE 18:50:30 10° ENE visible
22 Feb - 20:23:25 10° SW 20:28:48 33° WNW 20:34:25 10° N visible
23 Feb - 07:16:39 10° N 07:21:07 50° ENE 07:25:21 10° SE daylight
23 Feb - 18:09:05 10° SE 18:11:50 13° ESE 18:14:38 10° E daylight
23 Feb - 19:48:53 10° SW 19:54:46 53° WNW 20:00:55 10° N visible
24 Feb - 06:43:10 10° N 06:47:05 27° ENE 06:50:48 10° SE daylight
24 Feb - 08:28:23 10° W 08:29:53 11° WSW 08:31:22 10° SW daylight
24 Feb - 19:14:41 10° SSW 19:20:44 84° WNW 19:27:06 10° NNE visible
25 Feb - 06:10:19 10° NNE 06:13:01 15° ENE 06:15:38 10° ESE daylight
25 Feb - 07:52:30 10° WNW 07:55:54 21° WSW 07:59:12 10° SSW daylight
25 Feb - 18:40:47 10° S 18:46:43 62° ESE 18:52:59 10° NNE visible
25 Feb - 20:28:00 10° W 20:29:54 11° WNW 20:31:49 10° NW visible
26 Feb - 07:17:43 10° NW 07:21:56 38° WSW 07:25:57 10° S daylight
26 Feb - 18:07:10 10° S 18:12:44 39° ESE 18:18:33 10° NE daylight
26 Feb - 19:51:35 10° WSW 19:55:48 19° WNW 20:00:08 10° NNW visible
27 Feb - 06:43:24 10° NNW 06:47:57 74° WSW 06:52:15 10° SSE daylight
27 Feb - 17:33:56 10° SSE 17:38:44 25° ESE 17:43:43 10° ENE daylight
27 Feb - 19:16:27 10° SW 19:21:43 30° WNW 19:27:12 10° N visible
28 Feb - 06:09:28 10° N 06:13:56 58° ENE 06:18:12 10° SSE daylight
28 Feb - 17:01:23 10° SE 17:04:44 15° ESE 17:08:11 10° ENE daylight
28 Feb - 18:41:51 10° SW 18:47:40 48° WNW 18:53:46 10° N visible
01 Mar - 05:35:53 10° N 05:39:55 31° ENE 05:43:46 10° SE visible
01 Mar - 18:07:34 10° SSW 18:13:39 76° WNW 18:20:00 10° NNE daylight
02 Mar - 05:02:51 10° NNE 05:05:52 17° ENE 05:08:46 10° ESE visible
02 Mar - 06:45:39 10° WNW 06:48:43 18° WSW 06:51:44 10° SSW daylight
02 Mar - 17:33:35 10° SSW 17:39:38 70° ESE 17:45:57 10° NNE daylight
